Regional Weather Roundup
Issued by NWS

Home | Current Version | Previous Version | Graphics & Text | Print | Product List | Glossary On
Versions: 1 2 3 4 5 6 7 8 9 10 11 12 13 14 15 16 17 18 19 20 21 22 23 24 25 26 27 28 29 30 31 32 33 34 35 36 37 38 39 40 41 42 43 44 45 46 47 48 49 50
000
ASUS43 KMPX 011401
RWRMN
WEATHER ROUNDUP FOR MINNESOTA
NATIONAL WEATHER SERVICE TWIN CITIES/CHANHASSEN MN
900 AM CDT WED OCT 01 2014


NOTE: "FAIR" INDICATES FEW OR NO CLOUDS BELOW 12,000 FEET WITH NO
SIGNIFICANT WEATHER AND/OR OBSTRUCTIONS TO VISIBILITY. N/A MEANS
CURRENT SKY AND/OR WEATHER CONDITIONS ARE NOT AVAILABLE.

MNZ060>063-068>070-011500-
   Twin Cities Metro

CITY           SKY/WX    TMP DP  RH WIND       PRES   REMARKS
TWIN CITIES    LGT RAIN  50  48  93 SE13      29.85F FOG
ST PAUL        LGT RAIN  50  48  93 SE13      29.86F FOG
CRYSTAL        RAIN      51  48  89 SE9       29.83F FOG
BLAINE         CLOUDY    52  52 100 SE10      29.84S
LAKEVILLE      RAIN      48  48 100 SE7       29.84F
EDEN PRAIRIE   LGT RAIN  51  49  92 E8        29.82F FOG
SOUTH ST PAUL  LGT RAIN  50  48  92 SE9       29.85F
LAKE ELMO      RAIN      50  48  93 SE7       29.88R
$$
MNZ001>005-007-008-013>017-022>024-027-028-011500-
   Northwest Minnesota

CITY           SKY/WX    TMP DP  RH WIND       PRES   REMARKS
BEMIDJI        CLOUDY    53  51  91 SE15      29.71S
HALLOCK        PTSUNNY   59  52  77 S18       29.54R
ROSEAU         CLOUDY    61  54  77 S15G24    29.57R
WARROAD        CLOUDY    57  54  88 S15G22    29.59S
THIEF RVR FALL CLOUDY    61  54  77 S20G26    29.61R
CROOKSTON      PTSUNNY   61  54  77 SW20G25   29.62R
FOSSTON        PTSUNNY   57  54  88 S16G22    29.66R
DETROIT LAKES  CLOUDY    59  57  94 S8        29.70R
PARK RAPIDS    CLOUDY    51  51 100 SE15      29.73S FOG
MAHNOMEN       PTSUNNY   59  56  90 S10       29.66S
$$
MNZ006-009>011-018-025>026-011500-
   North Central Minnesota

CITY           SKY/WX    TMP DP  RH WIND       PRES   REMARKS
BAUDETTE       PTSUNNY   54  49  83 S12G28    29.65S
FLAG ISLAND    CLOUDY    55  52  88 S32G38    29.58R
INTL FALLS     CLOUDY    52  47  83 S10G20    29.73F
WASKISH        CLOUDY    54  50  87 SE9G18    29.68S
BIG FORK       CLOUDY    50  46  87 S8G16     29.77S
LONGVILLE      CLOUDY    50  48  93 SE14      29.77S
GRAND RAPIDS   CLOUDY    46  43  87 SE8       29.79F
CRANE LAKE     CLOUDY    50  46  87 S10G16    29.81S
ORR            CLOUDY    48  45  87 S14G20    29.77S
COOK           CLOUDY    48  45  87 S12G17    29.82R
WALKER         CLOUDY    51  49  93 S13       29.74S
$$
MNZ012-019>021-037-011500-
   Northeast Minnesota

CITY           SKY/WX    TMP DP  RH WIND       PRES   REMARKS
DULUTH         LGT RAIN  47  45  93 SE10      29.86R FOG
ELY            CLOUDY    48  45  87 S9        29.84S
HIBBING        CLOUDY    49  44  83 SE8       29.84R
EVELETH        CLOUDY    46  43  87 SE6       29.85S
DULUTH HARBOR  RAIN      48  46  93 CALM      29.88F
TWO HARBORS    DRIZZLE   46  41  81 E6        29.87S
SILVER BAY     CLOUDY    46  46 100 E3        29.88S
GRAND MARAIS     N/A     50  46  86 S12       29.92S
G MARAIS ARPRT CLOUDY    43  41  93 SE5       29.91S FOG
$$
MNZ029>031-032-039>041-046>048-054>057-064-011500-
   West Central Minnesota

CITY           SKY/WX    TMP DP  RH WIND       PRES   REMARKS
FERGUS FALLS   CLOUDY    61  57  88 S14       29.70S
WHEATON        CLOUDY    61  57  88 SE10      29.71S
MORRIS         CLOUDY    57  55  94 SE14      29.71F FOG
ALEXANDRIA     CLOUDY    54  53  97 S14       29.76R FOG
ELBOW LAKE     CLOUDY    56  55  96 SE15G22   29.71S FOG
WADENA         CLOUDY    52  52 100 S12       29.74S
GLENWOOD       CLOUDY    54  54 100 SE12G20   29.76S FOG
APPLETON       CLOUDY    63  57  82 SE10G17   29.72S FOG
BENSON         CLOUDY    55  55 100 S14G20    29.74S FOG
ORTONVILLE     CLOUDY    61  57  88 S5        29.71S FOG
MADISON        CLOUDY    64  63  94 SE9       29.73R FOG
WILLMAR        LGT RAIN  55  54  94 SE12      29.78S
$$
MNZ033>034-036-042>043-049>051-058-059-011500-
   Central Minnesota

CITY           SKY/WX    TMP DP  RH WIND       PRES   REMARKS
ST CLOUD       CLOUDY    53  46  77 SE10      29.81S
SAUK CENTRE    CLOUDY    51  50  98 SE9       29.78R FOG
PAYNESVILLE    LGT RAIN  50  49  98 E8        29.79S
AITKIN         CLOUDY    52  46  82 SE9       29.80S HAZE
PINE RIVER     CLOUDY    50  50 100 SE14      29.81S FOG
BRAINERD       CLOUDY    49  47  93 SE7       29.79S FOG
STAPLES        CLOUDY    50  48  93 SE8       29.76S FOG
LONG PRAIRIE   CLOUDY    50  50 100 SE13      29.78S FOG
LITTLE FALLS   CLOUDY    48  45  87 SE8       29.79F FOG
LITCHFIELD     CLOUDY    55  54  94 SE8       29.80S
BUFFALO        LGT RAIN  51  48  89 SE10      29.83S
MAPLE LAKE     CLOUDY    53  50  89 SE6       29.82S
$$
MNZ037-044-045-052-053-011500-
   East Central Minnesota

CITY           SKY/WX    TMP DP  RH WIND       PRES   REMARKS
PRINCETON      CLOUDY    52  46  82 SE10      29.83S
MORA           CLOUDY    48  43  81 S8        29.86S
CAMBRIDGE      DRIZZLE   52  43  71 SE8       29.82F
RUSH CITY      LGT RAIN  47  46  93 SE7       29.86S
MOOSE LAKE     CLOUDY    46  45  93 S7        29.84S FOG
HINCKLEY       CLOUDY    48  46  93 SE7       29.86R FOG
CLOQUET        CLOUDY    46  45  93 SE5       29.86R FOG
MCGREGOR       CLOUDY    48  45  87 SE10G17   29.84R
$$
MNZ071>073-080-081-089-090-097-098-011500-
   Southwest Minnesota

CITY           SKY/WX    TMP DP  RH WIND       PRES   REMARKS
MONTEVIDEO     DRIZZLE   59  59 100 S8        29.75S
GRANITE FALLS  CLOUDY    58  56  94 SE7       29.77R
CANBY          CLOUDY    62  60  94 SE6       29.74R FOG
MARSHALL       CLOUDY    61  55  82 SE10      29.74S
REDWOOD FALLS  CLOUDY    58  55  90 SE13      29.77S
OLIVIA         CLOUDY    57  54  88 SE10      29.77S
PIPESTONE      PTSUNNY   63  59  88 SW8       29.74F
WINDOM         CLOUDY    55  55 100 SE7       29.77F FOG
WORTHINGTON    CLOUDY    57  55  94 CALM      29.77S
JACKSON        CLOUDY    55  54  94 E7        29.79R FOG
TRACY          CLOUDY    60  57  92 S9        29.76F
SLAYTON        CLOUDY    57  57  99 SE7       29.77F FOG
$$
MNZ065>067-074>077-082>085-091>093-011500-
   South Central Minnesota

CITY           SKY/WX    TMP DP  RH WIND       PRES   REMARKS
MANKATO        CLOUDY    52  46  82 SE18      29.80S
NEW ULM        CLOUDY    54  54 100 SE9       29.80S
ST JAMES       CLOUDY    55  54  94 E6        29.80F FOG
FAIRMONT       CLOUDY    54  48  82 SE9       29.78R
GLENCOE          N/A    N/A N/A N/A MISG        N/A
FARIBAULT      RAIN      52  48  87 SE7       29.84S
OWATONNA       RAIN      52  48  87 SE12      29.83S
WASECA         HVY RAIN  50  46  87 SE8G16    29.84R
ALBERT LEA     LGT RAIN  52  50  93 SE13      29.82S
$$
MNZ078>079-086>088-094>096-011500-
   Southeast Minnesota

CITY           SKY/WX    TMP DP  RH WIND       PRES   REMARKS
ROCHESTER      LGT RAIN  49  47  93 SE17      29.87F FOG
RED WING       LGT RAIN  50  48  93 SE14      29.88S
STANTON        LGT RAIN  51  47  89 SE5       29.84S
DODGE CENTER   RAIN      50  48  93 SE17      29.85S
WINONA         CLOUDY    48  46  93 SE7       29.92S
AUSTIN         LGT RAIN  50  48  93 SE13      29.83F
PRESTON        RAIN      48  46  95 SE9       29.89F
$$
ABBREVIATIONS USED IN REMARKS
   TC - TEMPERATURES IN CELSIUS
  WCI - WIND CHILL INDEX
   HX - HEAT INDEX
  VSB - VISIBILITY
$$


USA.gov is the U.S. government's official web portal to all federal, state and local government web resources and services.